Regional Weather Roundup
Issued by NWS New Orleans/Baton Rouge, LA

Home | Current Version | Previous Version | Text Only | Print | Product List | Glossary On
Versions: 1 2 3 4 5 6 7 8 9 10 11 12 13 14 15 16 17 18 19 20 21 22 23 24 25 26 27 28 29 30 31 32 33 34 35 36 37 38 39 40 41 42 43 44 45 46 47 48 49 50
893
ASUS44 KLIX 271905
RWRLIX
NEW ORLEANS REGIONAL WEATHER ROUNDUP
NATIONAL WEATHER SERVICE NEW ORLEANS LA
100 PM CST TUE JAN 27 2015

NOTE: "FAIR" INDICATES FEW OR NO CLOUDS BELOW 12,000 FEET WITH NO
      SIGNIFICANT WEATHER AND/OR OBSTRUCTIONS TO VISIBILITY.
      SKY/WX - SKY CONDITION AND SIGNIFICANT WEATHER.
      TMP - AIR TEMPERATURE.     DP    - DEWPOINT TEMPERATURE.
      RH  - RELATIVE HUMIDITY.   PRES  - PRESSURE.
      HI  - HEAT INDEX.          WCI   - WIND CHILL INDEX.

*  THESE STATIONS ARE NOT NWS OR FAA STATIONS AND ARE NOT UNDER
   NWS QUALITY CONTROL.

LAZ038-040-048-061>063-065>067-069-272000-
SOUTHEAST LOUISIANA

CITY           SKY/WX    TMP DP  RH WIND       PRES   REMARKS
N.O. AUDUBON     N/A     70  44  38 MISG        N/A
N.O. INTL ARPT SUNNY     67  40  37 N5        30.10F
N.O. LAKEFRONT SUNNY     59  47  64 W7        30.10F
N.O. DOWNTOWN*   N/A    N/A N/A N/A NW8       30.10F
SLIDELL        SUNNY     74  36  25 NW8       30.07F
BATON ROUGE    SUNNY     75  36  24 VRB6      30.09F
BOOTHVILLE     SUNNY     64  45  49 VRB3      30.10F
BELLE CHASSE   MOSUNNY   71  35  26 VRB7      30.09F
BOGALUSA*        N/A     72  34  25 N12       30.09F
GALLIANO*      CLEAR     72  41  32 MISG      30.10F
NEW ROADS*       N/A     71  40  33 CALM      30.10F
GONZALES*        N/A     72  40  31 NW8       30.09F
HAMMOND*       SUNNY     73  32  21 NW7       30.10F
HOUMA*         SUNNY     72  45  37 N3        30.10F
PORT FOURCHON* CLEAR     68  43  40 NE3       30.14F

$$

MSZ070-080>082-272000-
SOUTHERN MISSISSIPPI

CITY           SKY/WX    TMP DP  RH WIND       PRES   REMARKS
MCCOMB         SUNNY     69  34  27 N8        30.08F
GULFPORT       SUNNY     70  38  31 N7        30.05F
BILOXI         SUNNY     69  38  31 N12       30.05F
PASCAGOULA     SUNNY     68  36  30 NW12G18   30.05F
STENNIS ARPT*  SUNNY     70  30  23 NW5       30.07F

$$

COASTAL OBSERVATIONS
LAKE AND NEARSHORE STATIONS

STATION/POSITION TIME  TEMP    WIND        PRES    WAVE
                       AIR SEA DIR/SP/G            HT/PER
                 (UTC) (F)     (DEG/KT/KT) (MB)    (FT/S)
PASCAGOULA       1900   66     300/  8/ 12 1017.3
WAVELAND YACHT   1900   66     340/ 11/ 13 1017.3
GRAND ISLE       1900   60 57  290/  4/  4 1019.8
SOUTHWEST PASS   1900   67 46  360/  7/  8 1019.7
NEW CANAL        1900   60 54   CALM  /  1 1019.5
SHELL BEACH      1900   59 53  290/  4/  4 1018.8

OFFSHORE STATIONS

STATION/POSITION TIME  TEMP    WIND        PRES    WAVE
                       AIR SEA DIR/SP/G            HT/PER
                 (UTC) (F)     (DEG/KT/KT) (MB)    (FT/S)
64 S DAUPHIN ISL 1850   61 69  330/ 10/ 14 1018.8    4/ 4

$$




USA.gov is the U.S. government's official web portal to all federal, state and local government web resources and services.